Weather History for Athens, OH

Change the Weather History Date:

Friday, November 30, 2012

  Actual Average (KPKB) Record (KPKB)
Temperature  
Mean Temperature 40 °F 40 °F  
Max Temperature 57 °F 49 °F 76 °F (1934)
Min Temperature 23 °F 31 °F 1 °F (1958)
Degree Days  
Heating Degree Days 25 25  
Month to date heating degree days 592  
Since 1 July heating degree days 985  
Cooling Degree Days 0 0  
Month to date cooling degree days 2  
Year to date cooling degree days 955  
Moisture  
Dew Point 28 °F    
Average Humidity 69    
Maximum Humidity 92    
Minimum Humidity 39    
Precipitation  
Precipitation 0.00 in 0.11 in 2.47 in (2010)
Month to date precipitation 3.36  
Year to date precipitation 38.09  
Sea Level Pressure  
Sea Level Pressure 30.24 in    
Wind  
Wind Speed 2 mph (SSW)    
Max Wind Speed 12 mph    
Max Gust Speed -    
Visibility 10 miles    
Events      
T = Trace of Precipitation, MM = Missing Value Source: NWS Daily Summary

Daily Weather History Graph

Daily Weather History Graph

Search for Another Location

Airport:

Trip Planner

Search our weather history database for the weather conditions in past years. The results will help you decide how hot, cold, wet, or windy it might be!

Date:

Astronomy

Nov. 30, 2012 Rise Set
Actual Time 7:28 AM EST 5:06 PM EST
Civil Twilight 6:59 AM EST 5:36 PM EST
Nautical Twilight 6:26 AM EST 6:09 PM EST
Astronomical Twilight 5:53 AM EST 6:41 PM EST
Moon 7:00 PM EST (11/30) 8:59 AM EST (11/30)
Length of Visible Light 10h 36m
Length of Day
9h 37m
Waning Gibbous, 96% of the Moon is Illuminated
Nov 30
Waning Gibbous
Dec 6
Last Quarter
Dec 13
New
Dec 20
First Quarter
Dec 28
Full

Hourly Weather History & Observations

Time (EST) Temp. Windchill Dew Point Humidity Pressure Visibility Wind Dir Wind Speed Gust Speed Precip Events Conditions
12:15 AM 26.8 °F - 22.8 °F 85% 30.29 in 10.0 mi Calm Calm - N/A   Clear
12:35 AM 26.4 °F - 22.3 °F 84% 30.28 in 10.0 mi Calm Calm - N/A   Clear
12:55 AM 26.6 °F - 22.8 °F 86% 30.27 in 10.0 mi Calm Calm - N/A   Clear
1:15 AM 26.6 °F - 23.2 °F 87% 30.27 in 10.0 mi Calm Calm - N/A   Mostly Cloudy
1:35 AM 28.0 °F - 23.9 °F 84% 30.27 in 10.0 mi Calm Calm - N/A   Overcast
1:55 AM 28.4 °F - 24.1 °F 84% 30.27 in 10.0 mi Calm Calm - N/A   Mostly Cloudy
2:15 AM 28.2 °F - 23.9 °F 84% 30.27 in 10.0 mi Calm Calm - N/A   Clear
2:35 AM 27.7 °F - 23.9 °F 86% 30.28 in 10.0 mi Calm Calm - N/A   Clear
2:55 AM 27.1 °F - 24.1 °F 88% 30.28 in 10.0 mi Calm Calm - N/A   Clear
3:15 AM 27.1 °F - 23.9 °F 88% 30.28 in 7.0 mi Calm Calm - N/A   Mostly Cloudy
3:35 AM 26.2 °F - 23.4 °F 89% 30.27 in 10.0 mi Calm Calm - N/A   Scattered Clouds
3:55 AM 25.7 °F - 23.0 °F 89% 30.27 in 10.0 mi Calm Calm - N/A   Clear
4:15 AM 25.9 °F - 23.4 °F 90% 30.27 in 10.0 mi Calm Calm - N/A   Clear
4:35 AM 25.7 °F - 22.8 °F 89% 30.27 in 10.0 mi Calm Calm - N/A   Clear
4:55 AM 25.5 °F - 22.8 °F 89% 30.27 in 10.0 mi Calm Calm - N/A   Clear
5:15 AM 25.2 °F - 22.3 °F 89% 30.27 in 10.0 mi Calm Calm - N/A   Clear
5:35 AM 23.9 °F - 21.2 °F 89% 30.27 in 10.0 mi Calm Calm - N/A   Clear
6:15 AM 24.4 °F - 21.7 °F 89% 30.27 in 10.0 mi Calm Calm - N/A   Clear
6:35 AM 23.5 °F - 21.0 °F 90% 30.27 in 10.0 mi Calm Calm - N/A   Clear
7:15 AM 24.3 °F - 21.7 °F 90% 30.29 in 10.0 mi Calm Calm - N/A   Clear
7:35 AM 23.5 °F - 21.4 °F 91% 30.29 in 10.0 mi Calm Calm - N/A   Clear
8:15 AM 23.0 °F - 21.0 °F 92% 30.29 in 10.0 mi Calm Calm - N/A   Clear
8:35 AM 23.7 °F - 21.2 °F 90% 30.29 in 10.0 mi Calm Calm - N/A   Clear
8:55 AM 25.0 °F - 22.5 °F 90% 30.29 in 10.0 mi Calm Calm - N/A   Clear
9:15 AM 27.5 °F - 24.6 °F 89% 30.29 in 7.0 mi Calm Calm - N/A   Clear
9:35 AM 31.6 °F - 28.0 °F 87% 30.29 in 10.0 mi Calm Calm - N/A   Clear
9:55 AM 40.5 °F 38.4 °F 30.0 °F 66% 30.30 in 10.0 mi SSW 3.5 mph - N/A   Clear
10:15 AM 41.5 °F 37.1 °F 28.2 °F 59% 30.30 in 10.0 mi SSW 6.9 mph - N/A   Clear
10:35 AM 44.8 °F 40.4 °F 29.5 °F 55% 30.31 in 10.0 mi SSW 8.1 mph - N/A   Clear
10:55 AM 47.7 °F - 30.6 °F 52% 30.30 in 10.0 mi SSW 8.1 mph - N/A   Clear
11:15 AM 50.2 °F - 30.0 °F 46% 30.29 in 10.0 mi SSW 11.5 mph - N/A   Clear
11:35 AM 52.0 °F - 30.2 °F 43% 30.29 in 10.0 mi South 9.2 mph - N/A   Clear
11:55 AM 52.9 °F - 30.0 °F 42% 30.27 in 10.0 mi WSW 5.8 mph - N/A   Clear
12:15 PM 54.3 °F - 30.9 °F 41% 30.26 in 10.0 mi SSW 8.1 mph - N/A   Clear
12:35 PM 54.5 °F - 30.9 °F 41% 30.25 in 10.0 mi SSW 6.9 mph - N/A   Clear
12:55 PM 55.4 °F - 32.0 °F 41% 30.23 in 10.0 mi SW 11.5 mph - N/A   Clear
1:15 PM 55.4 °F - 32.2 °F 41% 30.22 in 10.0 mi SW 9.2 mph - N/A   Clear
1:35 PM 56.7 °F - 32.5 °F 40% 30.21 in 10.0 mi SW 8.1 mph - N/A   Clear
1:55 PM 57.0 °F - 32.5 °F 40% 30.20 in 10.0 mi SSW 8.1 mph - N/A   Clear
2:15 PM 57.0 °F - 32.0 °F 39% 30.20 in 10.0 mi SSW 9.2 mph - N/A   Clear
2:35 PM 57.4 °F - 32.4 °F 39% 30.19 in 10.0 mi South 11.5 mph - N/A   Clear
2:55 PM 57.2 °F - 32.9 °F 40% 30.19 in 10.0 mi South 6.9 mph - N/A   Clear
3:15 PM 57.2 °F - 33.3 °F 40% 30.18 in 10.0 mi SSW 10.4 mph - N/A   Clear
3:35 PM 57.2 °F - 33.8 °F 41% 30.19 in 10.0 mi South 5.8 mph - N/A   Clear
3:55 PM 55.9 °F - 34.0 °F 44% 30.18 in 10.0 mi South 10.4 mph - N/A   Scattered Clouds
4:15 PM 56.3 °F - 34.2 °F 43% 30.19 in 10.0 mi SSW 6.9 mph - N/A   Scattered Clouds
4:35 PM 55.4 °F - 34.0 °F 44% 30.19 in 10.0 mi South 4.6 mph - N/A   Scattered Clouds
4:55 PM 54.9 °F - 34.0 °F 45% 30.19 in 10.0 mi South 4.6 mph - N/A   Scattered Clouds
5:15 PM 53.6 °F - 33.8 °F 47% 30.20 in 10.0 mi South 4.6 mph - N/A   Scattered Clouds
5:35 PM 53.2 °F - 33.8 °F 48% 30.20 in 10.0 mi South 3.5 mph - N/A   Mostly Cloudy
5:55 PM 51.4 °F - 33.8 °F 51% 30.20 in 10.0 mi Calm Calm - N/A   Overcast
6:35 PM 49.6 °F - 33.4 °F 54% 30.19 in 10.0 mi SSE 6.9 mph - N/A   Clear
6:55 PM 50.5 °F - 32.9 °F 51% 30.20 in 10.0 mi Calm Calm - N/A   Scattered Clouds
7:15 PM 48.2 °F - 32.5 °F 55% 30.20 in 10.0 mi Calm Calm - N/A   Scattered Clouds
7:35 PM 45.9 °F 44.6 °F 32.4 °F 59% 30.20 in 10.0 mi SSW 3.5 mph - N/A   Scattered Clouds
7:55 PM 45.0 °F 42.6 °F 32.2 °F 61% 30.21 in 10.0 mi South 4.6 mph - N/A   Mostly Cloudy
8:15 PM 43.9 °F - 32.0 °F 63% 30.21 in 10.0 mi Calm Calm - N/A   Scattered Clouds
8:35 PM 39.4 °F - 32.0 °F 75% 30.21 in 10.0 mi Calm Calm - N/A   Clear
8:55 PM 39.0 °F 36.8 °F 32.0 °F 76% 30.21 in 10.0 mi West 3.5 mph - N/A   Clear
9:15 PM 37.8 °F - 32.0 °F 80% 30.21 in 10.0 mi Calm Calm - N/A   Clear
9:35 PM 37.0 °F - 31.6 °F 81% 30.22 in 10.0 mi Calm Calm - N/A   Clear
9:55 PM 34.9 °F - 30.7 °F 85% 30.22 in 10.0 mi Calm Calm - N/A   Clear
10:15 PM 34.5 °F 31.6 °F 29.5 °F 82% 30.23 in 10.0 mi NNE 3.5 mph - N/A   Clear
10:35 PM 34.5 °F - 30.9 °F 87% 30.23 in 10.0 mi Calm Calm - N/A   Clear
10:55 PM 32.0 °F - 28.2 °F 86% 30.23 in 10.0 mi Calm Calm - N/A   Clear
11:15 PM 32.9 °F - 30.0 °F 89% 30.24 in 10.0 mi Calm Calm - N/A   Clear
11:35 PM 33.6 °F - 30.2 °F 87% 30.24 in 10.0 mi Calm Calm - N/A   Clear
11:55 PM 32.2 °F - 29.3 °F 89% 30.24 in 10.0 mi Calm Calm - N/A   Clear